STARLINK-1167, 45071

Orbit data source: Space-Track

STARLINK-1167, 45071 is a payload satellite owned by SpaceX/Seattle (US) in LEO that was launched on Wed, 29 Jan 2020 UTC via an FALCON 9 launch vehicle from the Air Force Eastern Test Range (AFETR). Payload-class satellites include a variety of spacecraft equipped with specific instruments for various scientific and technological missions. These include communications satellites like Starlink; space stations such as the ISS; scientific satellites like the Hubble; Earth observation satellites from companies like Planet Labs, Umbra, and HawkEye 360; GPS; miniature CubeSats for education and research; and military/defense satellites.

Loading next visibility...
Identifier
45071, 2020-006AD
Orbit
LEO
Country
Flag of USUS
Related business
Manufacturer
SpaceX/Seattle
Mission
Partially operational Commercial Communications
Bus & Motor
STARLINK, Unknown motor
Mass
260 kg wet, ~248 kg dry
Launch date (UTC)
2020-01-29 (6 years ago)
Launch vehicle
FALCON 9
Launch site
Air Force Eastern Test Range (AFETR)
Object type
Payload
Rocket body
Debris
Shape & HBR
Box + 1 Pan, 10.1 m
Radar Cross Section
13.562 m², Large (>1 m²)

Expand to show TLE details & history
Last TLE update: 8 hours ago

TLE from 8 hours ago
0 STARLINK-1167
1 45071U 20006AD  26170.92593688  .00041950  00000-0  10905-2 0  9997
2 45071  53.1562 140.2889 0003966  18.3370 341.7776 15.38540545352565
Epoch: 2026-06-19T22:13Z
TLE epoch observation values (Epoch: 2026-06-19T22:13:20.946Z)
Latitude
-0.00007°
Longitude
-101.19634°
Altitude
448.755 km
Speed
7.646 km/s
True Right ascension
09h 21m 09s
True Declination
0° 00' 00"
Sunlit
Object was in daylight at epoch
Visualization orbit readout
Latitude
Unknown
Longitude
Unknown
Altitude
Unknown
Speed
Unknown
Apparent Right ascension
Unknown
Apparent Declination
Unknown
Sunlit
N/A
Visualization observer readout
Local Sidereal Time
16:53:43
Azimuth
Unknown
Elevation
Unknown
Doppler factor
Unknown
Orbital elements
Apogee altitude
453.391 km
Perigee altitude
447.974 km
Semi-major axis
6,828.819 km
Eccentricity
0.0004
Inclination
53.1562°
RAAN
140.2889°
Arg. of periapsis
18.337°
True anomaly
341.76338°
Mean anomaly
341.7776°
Eccentric anomaly
341.77049°
Mean motion
3.84614 °/min
Orbital period
93.6 mins
BSTAR
0.0010905
Loading maneuver chart data...
Computing Atmospheric mass density...

Documentation

Showing up to 5 results
|